KG6SIB Weather Reports


Display with metric or nautical units.
time (UTC)temp
F
wind
direction
speed
MPH
gust
MPH
rain 1hr
in
rain 24hr
in
rain mn
in
humidity
%
barometer
mb
20260510194131 89 179 2.0 10.0 0.00 0.00 0.00 26 1016.5
20260510193631 88 204 0.0 7.0 0.00 0.00 0.00 25 1016.4
20260510193131 88 155 2.0 8.0 0.00 0.00 0.00 26 1016.5
20260510191632 88 234 3.0 9.0 0.00 0.00 0.00 25 1016.5
20260510190631 88 360 3.0 11.0 0.00 0.00 0.00 23 1016.5
20260510190132 88 236 9.0 9.0 0.00 0.00 0.00 23 1016.4
20260510185632 87 223 1.0 11.0 0.00 0.00 0.00 25 1016.4
20260510185131 86 226 3.0 11.0 0.00 0.00 0.00 21 1016.0
20260510184631 86 233 0.0 10.0 0.00 0.00 0.00 20 1016.1
20260510184131 87 242 2.0 9.0 0.00 0.00 0.00 22 1016.2
20260510183631 87 326 4.0 9.0 0.00 0.00 0.00 21 1016.3
20260510183131 87 232 3.0 9.0 0.00 0.00 0.00 21 1016.3
20260510182131 87 259 2.0 9.0 0.00 0.00 0.00 20 1016.3
20260510181631 87 246 3.0 9.0 0.00 0.00 0.00 19 1016.2
20260510181131 86 246 2.0 9.0 0.00 0.00 0.00 22 1016.1
20260510180630 86 193 4.0 9.0 0.00 0.00 0.00 22 1016.2
20260510180131 85 232 2.0 11.0 0.00 0.00 0.00 21 1016.3
20260510175130 85 233 1.0 9.0 0.00 0.00 0.00 19 1016.4
20260510174131 85 275 4.0 11.0 0.00 0.00 0.00 22 1016.5
20260510173630 85 257 9.0 11.0 0.00 0.00 0.00 22 1016.5
20260510173130 85 261 6.0 9.0 0.00 0.00 0.00 20 1016.5
20260510172630 85 227 3.0 9.0 0.00 0.00 0.00 20 1016.4
20260510171630 85 215 3.0 9.0 0.00 0.00 0.00 18 1016.1
20260510170630 85 221 4.0 7.0 0.00 0.00 0.00 18 1016.1
20260510170130 85 255 4.0 7.0 0.00 0.00 0.00 19 1015.9
20260510165630 84 243 3.0 5.0 0.00 0.00 0.00 19 1015.7
20260510165130 84 238 2.0 4.0 0.00 0.00 0.00 19 1015.6
20260510164630 83 221 0.0 7.0 0.00 0.00 0.00 20 1015.6
20260510164130 82 211 3.0 7.0 0.00 0.00 0.00 21 1015.4
20260510163630 82 225 0.0 4.0 0.00 0.00 0.00 21 1015.4
20260510163129 81 227 2.0 5.0 0.00 0.00 0.00 20 1015.4
20260510162630 81 215 2.0 6.0 0.00 0.00 0.00 20 1015.4
20260510162130 80 221 0.0 6.0 0.00 0.00 0.00 23 1015.2
20260510161630 80 215 0.0 4.0 0.00 0.00 0.00 25 1015.1
20260510161130 80 248 1.0 4.0 0.00 0.00 0.00 25 1015.1
20260510160130 78 182 0.0 4.0 0.00 0.00 0.00 24 1014.8
20260510155129 77 171 1.0 4.0 0.00 0.00 0.00 27 1014.7
20260510154629 77 169 0.0 4.0 0.00 0.00 0.00 28 1014.6
20260510154130 76 160 1.0 2.0 0.00 0.00 0.00 31 1014.7
20260510153629 75 159 0.0 4.0 0.00 0.00 0.00 32 1014.4
20260510153129 75 159 2.0 4.0 0.00 0.00 0.00 34 1014.5
20260510152629 74 79 0.0 0.0 0.00 0.00 0.00 35 1014.5
20260510152129 73 79 0.0 0.0 0.00 0.00 0.00 39 1014.3
20260510151629 72 79 0.0 2.0 0.00 0.00 0.00 38 1014.4
20260510150629 70 79 0.0 4.0 0.00 0.00 0.00 40 1014.1
20260510150128 69 80 2.0 5.0 0.00 0.00 0.00 36 1013.7
20260510145629 68 60 3.0 5.0 0.00 0.00 0.00 37 1014.5
20260510145128 67 74 3.0 5.0 0.00 0.00 0.00 37 1014.2
20260510144629 65 53 1.0 5.0 0.00 0.00 0.00 37 1014.0
20260510144129 64 69 4.0 7.0 0.00 0.00 0.00 39 1014.0
20260510143128 62 74 7.0 7.0 0.00 0.00 0.00 39 1013.7
20260510142628 61 42 5.0 7.0 0.00 0.00 0.00 40 1013.3
20260510142129 60 74 4.0 8.0 0.00 0.00 0.00 39 1013.3
20260510141128 57 57 3.0 8.0 0.00 0.00 0.00 40 1012.7
20260510140128 55 81 4.0 8.0 0.00 0.00 0.00 39 1012.5
20260510135628 54 75 4.0 9.0 0.00 0.00 0.00 39 1013.6
20260510135128 54 68 4.0 11.0 0.00 0.00 0.00 40 1013.6
20260510134628 53 71 4.0 11.0 0.00 0.00 0.00 39 1013.3
20260510134127 52 58 7.0 10.0 0.00 0.00 0.00 39 1013.3
20260510133127 50 66 9.0 10.0 0.00 0.00 0.00 38 1013.0
20260510132627 50 62 8.0 9.0 0.00 0.00 0.00 38 1013.0
20260510132128 50 58 6.0 9.0 0.00 0.00 0.00 39 1013.0
20260510131628 50 65 9.0 9.0 0.00 0.00 0.00 37 1013.0
20260510131127 49 55 5.0 9.0 0.00 0.00 0.00 37 1012.8
20260510130627 49 41 7.0 9.0 0.00 0.00 0.00 38 1012.8
20260510130127 49 52 4.0 9.0 0.00 0.00 0.00 38 1012.8
20260510125628 49 75 7.0 8.0 0.00 0.00 0.00 37 1013.4
20260510125127 49 67 5.0 8.0 0.00 0.00 0.00 38 1013.3
20260510124127 50 57 3.0 9.0 0.00 0.00 0.00 37 1013.4
20260510123627 50 63 3.0 9.0 0.00 0.00 0.00 37 1013.3
20260510122627 50 76 5.0 9.0 0.00 0.00 0.00 35 1013.2
20260510122127 49 27 6.0 8.0 0.00 0.00 0.00 35 1013.2
20260510121627 49 56 5.0 10.0 0.00 0.00 0.00 36 1013.3
20260510121127 50 68 5.0 10.0 0.00 0.00 0.00 35 1013.3
20260510120627 49 73 5.0 9.0 0.00 0.00 0.00 36 1013.3
20260510120127 49 53 7.0 9.0 0.00 0.00 0.00 35 1013.3
20260510115627 49 55 5.0 9.0 0.00 0.00 0.00 36 1013.8
20260510115127 48 55 5.0 9.0 0.00 0.00 0.00 37 1013.8
20260510114627 48 59 9.0 9.0 0.00 0.00 0.00 37 1013.8
20260510114126 48 65 4.0 8.0 0.00 0.00 0.00 37 1013.9
20260510113626 48 56 5.0 9.0 0.00 0.00 0.00 38 1013.9
20260510113126 48 64 8.0 9.0 0.00 0.00 0.00 37 1013.8
20260510112627 48 83 4.0 8.0 0.00 0.00 0.00 38 1013.8
20260510112126 48 67 5.0 8.0 0.00 0.00 0.00 37 1013.9
20260510111626 48 39 5.0 8.0 0.00 0.00 0.00 38 1014.0
20260510111127 48 73 5.0 8.0 0.00 0.00 0.00 38 1013.9
20260510110627 48 34 6.0 9.0 0.00 0.00 0.00 38 1013.9
20260510110126 48 61 9.0 9.0 0.00 0.00 0.00 38 1013.9
20260510105626 47 65 4.0 9.0 0.00 0.00 0.00 36 1014.2
20260510105126 47 83 3.0 9.0 0.00 0.00 0.00 39 1014.2
20260510104626 47 60 3.0 9.0 0.00 0.00 0.00 39 1014.2
20260510104126 48 71 5.0 9.0 0.00 0.00 0.00 39 1014.2
20260510103626 47 74 7.0 9.0 0.00 0.00 0.00 38 1014.2
20260510103126 47 56 5.0 8.0 0.00 0.00 0.00 38 1014.2
20260510102126 47 51 5.0 8.0 0.00 0.00 0.00 39 1014.2
20260510101626 47 32 6.0 8.0 0.00 0.00 0.00 39 1014.2
20260510101126 47 60 5.0 9.0 0.00 0.00 0.00 40 1014.3
20260510100626 47 50 6.0 9.0 0.00 0.00 0.00 40 1014.3
20260510100126 47 59 5.0 8.0 0.00 0.00 0.00 40 1014.4
20260510095626 47 47 4.0 8.0 0.00 0.00 0.00 39 1014.7
20260510095125 47 76 4.0 8.0 0.00 0.00 0.00 39 1014.7
20260510094626 47 51 5.0 8.0 0.00 0.00 0.00 38 1014.6
20260510094126 47 68 3.0 5.0 0.00 0.00 0.00 39 1014.6
20260510093625 48 70 5.0 5.0 0.00 0.00 0.00 39 1014.8
20260510092125 49 68 3.0 7.0 0.00 0.00 0.00 37 1014.9
20260510091625 49 86 5.0 7.0 0.00 0.00 0.00 36 1014.8
20260510091125 49 59 3.0 8.0 0.00 0.00 0.00 35 1014.8
20260510090625 49 49 6.0 8.0 0.00 0.00 0.00 36 1014.8
20260510090125 49 57 4.0 7.0 0.00 0.00 0.00 34 1014.7
20260510085625 49 35 5.0 7.0 0.00 0.00 0.00 36 1014.8
20260510084625 49 27 6.0 8.0 0.00 0.00 0.00 37 1014.8
20260510083624 49 32 5.0 8.0 0.00 0.00 0.00 38 1014.9
20260510083125 48 36 6.0 8.0 0.00 0.00 0.00 37 1014.9
20260510082124 48 38 5.0 9.0 0.00 0.00 0.00 38 1015.0
20260510081124 48 71 5.0 9.0 0.00 0.00 0.00 39 1015.1
20260510080624 48 67 6.0 9.0 0.00 0.00 0.00 39 1015.2
20260510080124 48 60 5.0 8.0 0.00 0.00 0.00 39 1015.2
20260510075624 48 41 5.0 8.0 0.00 0.00 0.00 39 1015.2
20260510075124 48 59 6.0 7.0 0.00 0.00 0.00 40 1015.2
20260510074624 49 38 4.0 8.0 0.00 0.00 0.00 40 1015.6
20260510073624 49 39 5.0 10.0 0.00 0.00 0.00 40 1015.7
20260510073124 49 65 4.0 10.0 0.00 0.00 0.00 40 1015.7
20260510072624 49 51 5.0 9.0 0.00 0.00 0.00 40 1015.8
20260510072124 49 59 5.0 9.0 0.00 0.00 0.00 39 1015.8
20260510071624 49 64 4.0 9.0 0.00 0.00 0.00 39 1015.8
20260510071124 49 78 8.0 9.0 0.00 0.00 0.00 40 1015.7
20260510070623 49 59 6.0 9.0 0.00 0.00 0.00 39 1015.8
20260510070153 49 74 7.0 8.0 0.00 0.00 0.00 40 1015.7
20260510065123 50 34 4.0 8.0 0.00 0.00 0.00 40 1015.7
20260510064623 50 54 6.0 8.0 0.00 0.00 0.00 41 1015.6
20260510064124 50 24 5.0 8.0 0.00 0.00 0.00 42 1015.7
20260510063623 50 24 4.0 8.0 0.00 0.00 0.00 42 1015.7
20260510063123 50 57 4.0 9.0 0.00 0.00 0.00 44 1015.7
20260510062653 50 52 5.0 9.0 0.00 0.00 0.00 44 1015.7
20260510062153 50 61 3.0 9.0 0.00 0.00 0.00 45 1015.6
20260510061653 50 67 4.0 8.0 0.00 0.00 0.00 46 1015.6
20260510061153 50 74 5.0 8.0 0.00 0.00 0.00 46 1015.5
20260510060653 51 49 4.0 10.0 0.00 0.00 0.00 46 1015.8
20260510060153 51 74 5.0 10.0 0.00 0.00 0.00 46 1015.8
20260510055653 51 65 4.0 9.0 0.00 0.00 0.00 47 1015.6
20260510055153 51 33 4.0 8.0 0.00 0.00 0.00 46 1015.6
20260510054653 51 73 4.0 8.0 0.00 0.00 0.00 46 1015.6
20260510054153 51 95 6.0 8.0 0.00 0.00 0.00 46 1015.6
20260510053652 51 103 6.0 8.0 0.00 0.00 0.00 47 1015.7
20260510053153 51 78 2.0 9.0 0.00 0.00 0.00 47 1015.5
20260510052652 51 63 5.0 9.0 0.00 0.00 0.00 48 1015.6
20260510052153 51 22 6.0 9.0 0.00 0.00 0.00 47 1015.5
20260510051153 51 76 7.0 8.0 0.00 0.00 0.00 45 1015.5
20260510050653 51 52 5.0 8.0 0.00 0.00 0.00 48 1015.5
20260510050152 51 76 5.0 8.0 0.00 0.00 0.00 46 1015.5
20260510045653 52 59 5.0 9.0 0.00 0.00 0.00 47 1015.4
20260510045152 52 48 4.0 9.0 0.00 0.00 0.00 50 1015.3
20260510044652 51 69 3.0 8.0 0.00 0.00 0.00 49 1015.1
20260510044152 51 74 5.0 8.0 0.00 0.00 0.00 52 1015.1
20260510043652 51 74 7.0 8.0 0.00 0.00 0.00 53 1015.0
20260510043152 52 52 4.0 8.0 0.00 0.00 0.00 56 1015.1
20260510042652 51 79 8.0 8.0 0.00 0.00 0.00 58 1014.9
20260510042152 52 67 3.0 8.0 0.00 0.00 0.00 59 1015.1
20260510041152 52 85 7.0 8.0 0.00 0.00 0.00 57 1015.1
20260510040652 52 71 5.0 8.0 0.00 0.00 0.00 58 1015.1
20260510040152 52 50 4.0 7.0 0.00 0.00 0.00 63 1015.0
20260510035652 52 61 5.0 7.0 0.00 0.00 0.00 61 1014.3
20260510035152 53 51 6.0 7.0 0.00 0.00 0.00 63 1014.7
20260510034152 54 74 3.0 7.0 0.00 0.00 0.00 65 1014.6
20260510033651 55 55 4.0 6.0 0.00 0.00 0.00 67 1014.9
20260510033151 55 65 4.0 6.0 0.00 0.00 0.00 67 1014.8
20260510032651 56 48 4.0 7.0 0.00 0.00 0.00 67 1014.7
20260510032151 56 69 3.0 7.0 0.00 0.00 0.00 67 1014.4
20260510031151 57 53 5.0 5.0 0.00 0.00 0.00 68 1014.6
20260510030652 58 51 3.0 5.0 0.00 0.00 0.00 68 1014.6
20260510030152 58 51 3.0 5.0 0.00 0.00 0.00 67 1014.5
20260510025651 59 62 3.0 5.0 0.00 0.00 0.00 66 1013.8
20260510025151 60 54 3.0 5.0 0.00 0.00 0.00 65 1013.9
20260510024651 61 61 3.0 5.0 0.00 0.00 0.00 64 1014.2
20260510024151 61 63 4.0 5.0 0.00 0.00 0.00 63 1014.2
20260510023151 63 48 4.0 4.0 0.00 0.00 0.00 60 1014.5
20260510022151 65 236 0.0 0.0 0.00 0.00 0.00 58 1014.6
20260510021650 66 236 0.0 0.0 0.00 0.00 0.00 56 1014.5
20260510021150 67 236 0.0 0.0 0.00 0.00 0.00 55 1014.8
20260510020651 67 236 0.0 0.0 0.00 0.00 0.00 55 1014.8
20260510020150 68 236 0.0 0.0 0.00 0.00 0.00 54 1014.7
20260510015151 69 236 0.0 4.0 0.00 0.00 0.00 54 1013.5
20260510014650 69 236 3.0 4.0 0.00 0.00 0.00 53 1013.5
20260510014150 70 261 0.0 3.0 0.00 0.00 0.00 54 1013.6
20260510013650 70 265 1.0 7.0 0.00 0.00 0.00 52 1013.6
20260510013150 70 255 0.0 7.0 0.00 0.00 0.00 52 1013.7
20260510012650 71 242 0.0 8.0 0.00 0.00 0.00 52 1013.6
20260510012150 71 242 3.0 8.0 0.00 0.00 0.00 51 1013.6
20260510011150 72 229 1.0 6.0 0.00 0.00 0.00 51 1013.8
20260510010650 72 234 1.0 9.0 0.00 0.00 0.00 49 1013.7
20260510010150 73 258 4.0 9.0 0.00 0.00 0.00 50 1013.9
20260510005650 74 232 1.0 8.0 0.00 0.00 0.00 49 1013.7
20260510005149 74 224 5.0 8.0 0.00 0.00 0.00 49 1013.7
20260510004650 75 202 2.0 8.0 0.00 0.00 0.00 48 1013.6
20260510004149 75 227 0.0 8.0 0.00 0.00 0.00 47 1013.7
20260510003650 76 224 4.0 8.0 0.00 0.00 0.00 48 1013.8
20260510002149 77 224 3.0 9.0 0.00 0.00 0.00 46 1013.8
20260510001649 77 237 0.0 9.0 0.00 0.00 0.00 45 1013.7
20260510001150 77 227 4.0 11.0 0.00 0.00 0.00 46 1013.7
20260510000649 78 249 5.0 11.0 0.00 0.00 0.00 45 1013.9
20260509235650 78 253 9.0 11.0 0.00 0.00 0.00 44 1013.6
20260509235149 78 243 3.0 11.0 0.00 0.00 0.00 44 1013.6
20260509234649 79 232 4.0 9.0 0.00 0.00 0.00 44 1013.8
20260509233649 80 250 2.0 7.0 0.00 0.00 0.00 43 1013.9
20260509233149 80 234 0.0 10.0 0.00 0.00 0.00 43 1013.9
20260509232149 81 244 9.0 10.0 0.00 0.00 0.00 42 1014.1
20260509231649 81 227 0.0 9.0 0.00 0.00 0.00 43 1014.1
20260509230149 81 260 6.0 11.0 0.00 0.00 0.00 43 1014.1
20260509225648 81 239 0.0 10.0 0.00 0.00 0.00 42 1014.1
20260509224648 81 211 3.0 9.0 0.00 0.00 0.00 43 1014.3
20260509224148 81 184 2.0 11.0 0.00 0.00 0.00 41 1014.3
20260509223648 82 248 0.0 11.0 0.00 0.00 0.00 40 1014.4
20260509223149 82 227 2.0 11.0 0.00 0.00 0.00 40 1014.4
20260509222648 83 225 2.0 11.0 0.00 0.00 0.00 39 1014.6
20260509222148 83 315 2.0 10.0 0.00 0.00 0.00 40 1014.7
20260509221648 83 232 1.0 10.0 0.00 0.00 0.00 37 1014.5
20260509221148 83 231 3.0 11.0 0.00 0.00 0.00 37 1014.5
20260509220648 83 347 2.0 11.0 0.00 0.00 0.00 36 1014.5
20260509220148 84 234 1.0 9.0 0.00 0.00 0.00 37 1014.7
20260509215148 84 252 4.0 10.0 0.00 0.00 0.00 32 1014.7
20260509214648 84 232 1.0 10.0 0.00 0.00 0.00 33 1014.6
20260509214148 84 235 2.0 9.0 0.00 0.00 0.00 32 1014.6
20260509213148 84 227 2.0 11.0 0.00 0.00 0.00 31 1014.6
20260509212648 84 188 2.0 11.0 0.00 0.00 0.00 31 1014.7
20260509212147 85 254 1.0 8.0 0.00 0.00 0.00 33 1015.1
20260509211648 84 319 2.0 8.0 0.00 0.00 0.00 31 1014.8
20260509210148 84 229 9.0 12.0 0.00 0.00 0.00 30 1015.0
20260509205648 84 220 7.0 11.0 0.00 0.00 0.00 31 1015.0
20260509205147 84 200 4.0 10.0 0.00 0.00 0.00 30 1015.1
20260509204647 84 224 5.0 10.0 0.00 0.00 0.00 32 1015.1
20260509204148 84 193 2.0 10.0 0.00 0.00 0.00 29 1015.2
20260509203647 84 338 3.0 10.0 0.00 0.00 0.00 29 1015.2
20260509203147 84 242 3.0 10.0 0.00 0.00 0.00 27 1015.2
20260509202647 84 234 2.0 11.0 0.00 0.00 0.00 30 1015.2
20260509202147 85 237 5.0 11.0 0.00 0.00 0.00 28 1015.4
20260509201647 85 290 5.0 10.0 0.00 0.00 0.00 27 1015.4
20260509200647 85 235 2.0 10.0 0.00 0.00 0.00 30 1015.5
20260509200147 85 251 3.0 10.0 0.00 0.00 0.00 29 1015.5
20260509195647 85 244 0.0 9.0 0.00 0.00 0.00 29 1015.4